Location: Molveno
(46.1500°N, 10.9667°E)
Time: 08:06:51
(UTC+00:00)

TSX-5 - Pass Details

Date: 05 July 2020
Orbit: 404 x 1328 km, 68.9° (Epoch: 05 August)

Event Time Altitude Azimuth Distance (km) Brightness Sun altitude
Rises 21:31:13 0° 332° (NNW) 2,422 8.9 -16.8°
Reaches altitude 10° 21:33:09 10° 335° (NNW) 1,610 7.5 -17.0°
Maximum altitude 21:36:38 69° 60° (ENE) 557 3.8 -17.2°
Enters shadow 21:38:06 36° 133° (SE) 870 4.3 -17.3°
